SL-14 R/B

Satellite information

Favourite Embed

Satellite Type and Status

ROCKET BODYIN ORBIT

Key statistics

Satellite SL-14 R/B at a glance.

Uptime

12114

Days in orbit

Revolutions

≈ 12.5

Per day

Orbit

LEO

Low Earth Orbit

Inclination

82.6

Latest

Satellite identification and parameters

Extended collection of information and parameters for SL-14 R/B.

Object identification

Identified? True

Debris? False

Object name: SL-14 R/B

International designator: 1992-068G

Object number (NORAD): 22188

Object ID (CCSDS): 22188

Country: COMMONWEALTH OF INDEPENDENT STATES (CIS)

Current information (Y/N): Y

RCS size: LARGE

Orbital parameters

Period: 114.749 minutes

Inclination: 82.5978 deg

SMA: 7822.129 km

Apoapsis: 1479.655 km

Periapsis: 1408.332 km

RAAN: 207.6256 deg

Eccentricy: 0.00455904

Argument of periapsis: 159.7807 deg

Mean anomaly: 324.0456 deg

Mean motion: 12.54917932 rev/day

Mean motion (dot): 0.0000004 rev/day2

B* drag term: 0.00018183736 1/REarth

Two-line elements (TLE)

Creation date: Dec. 20, 2025, 3:40 a.m.

Reference frame: TEME

Reference center: EARTH

Epoch: Dec. 19, 2025, 11:17 p.m. UTC

TLE line 0: 0 SL-14 R/B

TLE line 1: 1 22188U 92068G 25353.97062865 .00000040 00000-0 18184-3 0 9996

TLE line 2: 2 22188 82.5978 207.6256 0045590 159.7807 324.0456 12.54917932519125

Live tracking on map

Real-time ground track for satellite SL-14 R/B.

In-orbit conjunctions

A list of the most updated potential collisions computed for object SL-14 R/B.

Target Orbit TCA Probability of collision Miss distance Type
COSMOS 1475 LEO 2025-09-21 06:24:34 0.001208495 66.0 (m) PAYLOAD
DELTA 1 DEB SSO 2024-08-08 17:02:11 0.001992517 42.0 (m) DEBRIS

Associated space launch

Second generation store-dump military communications satellite

SL-14 R/B was lifted into orbit during the mission ‘Tsiklon-3 | Strela-3 83 to 88’, on board a Tsiklon-3 space rocket.

The launch took place on Oct. 20, 1992, 12:58 p.m. from 32/1.

For more information about the launch, click the button.

Launch to space Tsiklon-3 | Strela-3 83 to 88
Tsiklon-3 | Strela-3 83 to 88

Agency: N/A

Status: Launch Successful

Launch date: Oct. 20, 1992, 12:58 p.m. UTC

Rocket: Tsiklon-3

Launch pad: 32/1

Location: Plesetsk Cosmodrome, Russian Federation

...

Latest news about this satellite

There are no fresh news available about this satellite. Check back as we update our databases every day.


Newsletter sign-up

Weekly statistics, charts and insights to help you stay on top of the space industry.